RH
98 90 97 98 92 96 100 100 100 100 100 100 100 100 100 100 100 81 94 92 68 87 93 97 88 76 64 40 30 23 25 100 89 100 87 83 58 76 100 93 96 49 30 40
100 94 99 96 86 85 91 100 100 100 100 100 100 99 95 93 94 98 95 99 99 82 67 69 47 31 21 18 17 18 18 28 52 63 69 38 25 36 71 52 62 25 23 29
100 99 100 98 97 90 88 90 90 90 88 94 99 96 84 83 78 76 71 65 59 54 38 21 17 17 19 22 27 28 30 31 31 36 41 46 54 58 50 43 40 46 48 51
100 100 100 100 96 100 93 78 83 81 80 76 69 60 61 64 58 52 45 37 24 18 18 21 27 37 36 43 44 47 49 49 49 47 41 41 41 41 39 36 35 35 38 40
80 66 43 32 29 34 37 52 57 53 48 45 43 40 42 43 36 23 18 19 20 22 24 32 48 53 48 41 38 36 37 41 42 39 38 36 36 37 38 42 43 43 42 40
29 30 35 37 47 48 46 51 52 48 43 39 37 24 20 19 22 24 24 24 32 44 51 46 39 38 41 42 44 45 45 44 43 41 42 42 40 37 35 35 35 36 41 44
66 63 62 61 60 59 58 47 34 25 21 21 23 24 25 24 24 35 46 49 45 39 38 38 39 43 45 46 46 44 45 44 44 42 40 37 36 35 32 33 40 44 47 52
64 65 55 37 27 22 22 21 21 21 21 21 24 36 53 55 53 46 44 42 41 44 47 44 41 41 42 43 44 45 44 42 39 36 35 33 33 34 40 45 53 60 65 65
36 25 24 26 27 28 26 25 22 23 36 50 54 46 44 42 41 42 44 45 45 45 42 40 41 43 44 46 48 48 48 49 49 42 37 38 43 53 62 65 65 66 62 58
26 26 24 22 27 30 30 34 44 48 45 44 41 40 43 44 46 47 48 48 43 43 48 46 45 48 50 50 47 47 48 49 49 49 52 52 54 56 58 59 58 56 56 59
27 24 24 28 38 42 53 52 50 45 40 44 44 44 49 49 46 44 41 41 48 52 48 52 61 61 55 57 52 52 55 55 55 54 52 53 50 45 47 49 54 68 68 72
29 31 40 52 52 53 52 48 46 47 48 49 51 48 48 47 44 38 41 47 46 48 50 54 63 64 79 67 58 64 67 59 57 56 48 40 44 47 53 59 76 71 74 70
40 43 48 53 51 44 51 50 50 49 49 52 46 55 52 49 42 43 45 44 42 50 52 54 60 77 80 71 59 55 54 50 47 44 38 49 55 55 66 75 71 67 62 60
45 45 54 58 55 56 56 55 52 48 46 48 50 66 53 59 47 43 42 43 47 54 50 56 56 58 68 66 58 54 53 53 50 42 51 57 58 65 76 73 74 77 76 64
59 63 64 62 65 64 62 59 55 58 58 65 68 68 48 54 52 49 50 48 54 64 67 59 58 59 56 62 57 50 49 48 46 47 55 63 64 76 77 82 82 86 74 64
76 83 71 68 70 71 70 67 62 66 71 77 77 72 62 66 59 61 54 50 56 63 71 74 70 58 56 56 54 54 58 51 52 58 64 69 74 83 81 92 96 88 56 34
75 72 75 77 80 80 87 68 75 75 77 81 97 78 74 91 87 76 52 58 74 88 89 94 87 66 57 59 61 65 58 55 60 69 70 75 86 88 96 96 80 62 38 19
75 86 92 92 85 91 93 92 73 70 81 99 89 77 85 88 81 67 67 78 78 79 93 93 83 76 65 67 57 59 60 66 75 76 83 89 88 92 93 75 60 41 20 15
76 86 92 99 89 95 100 98 82 69 89 80 77 90 96 91 92 89 81 80 82 87 98 90 83 81 79 69 65 65 73 78 81 85 91 93 89 90 84 58 30 23 15 13
69 77 87 98 97 100 100 100 88 82 94 100 100 100 99 95 92 86 85 84 90 98 97 91 85 86 83 77 78 84 82 81 82 93 94 87 88 82 64 32 20 16 13 10
54 59 72 77 81 89 91 88 92 95 98 100 100 100 100 97 86 85 87 69 88 99 98 88 96 94 88 80 83 82 82 81 93 92 89 87 77 56 30 22 22 14 12 10
58 60 70 79 83 77 82 90 97 93 80 83 100 100 97 86 89 95 81 84 95 97 97 100 99 92 79 80 84 85 79 90 95 93 89 78 58 34 24 20 16 13 11 9
77 75 77 74 72 65 69 77 80 73 96 100 100 94 89 94 97 67 65 95 100 100 100 100 97 78 75 78 85 82 84 94 90 88 80 57 44 31 24 18 12 11 10 9
90 87 88 78 80 71 73 70 76 100 100 100 96 90 88 74 70 77 93 100 100 100 100 98 79 74 77 85 86 84 94 94 82 74 62 52 49 34 20 13 12 10 9 10
100 95 84 95 100 100 100 100 100 100 95 92 86 72 69 73 76 91 100 100 97 91 92 80 73 76 84 88 89 93 98 84 73 60 48 44 38 27 15 13 11 9 9 9
100 100 100 100 100 100 100 100 99 94 85 72 74 74 74 86 90 89 86 90 89 88 82 84 88 90 90 96 92 93 85 73 58 42 34 27 23 15 13 11 9 8 9 8
Wind_Speed
27 21 20 22 22 23 20 21 28 31 40 43 42 45 45 48 52 57 54 58 59 60 58 53 50 51 54 51 48 45 43 28 29 52 57 62 61 65 66 73 73 78 81 84
24 26 27 25 26 24 24 25 23 23 30 40 44 47 47 49 47 45 48 50 56 49 52 48 44 45 43 43 45 47 48 40 44 54 61 63 64 63 70 75 80 83 84 84
25 24 23 24 26 27 27 25 26 29 30 32 33 35 35 36 43 48 40 43 45 43 43 40 40 41 43 42 43 43 42 44 48 52 54 55 57 61 64 68 71 74 75 76
23 24 24 24 23 23 26 26 26 26 28 29 30 32 33 37 40 37 36 35 34 36 36 34 31 34 34 35 38 41 42 44 46 51 54 57 60 63 67 69 72 73 75 77
22 23 22 21 20 20 22 24 25 24 25 28 30 31 32 30 29 29 30 30 31 29 26 26 30 34 37 39 42 44 46 49 51 54 56 59 60 61 63 65 68 70 72 74
21 18 17 17 19 21 22 20 21 23 25 26 26 27 26 25 25 25 24 21 20 24 27 30 34 37 41 43 46 48 51 53 56 59 60 62 63 64 65 68 70 71 72 74
19 19 19 20 20 19 18 20 22 23 21 21 23 22 21 19 15 14 17 21 23 26 30 34 38 42 45 47 50 52 54 56 58 60 61 62 63 65 67 68 67 68 71 75
16 16 14 14 13 13 13 14 15 16 16 13 9 6 7 10 14 18 19 23 26 30 34 38 41 44 48 52 55 57 58 59 61 62 63 64 65 66 67 66 68 72 77 82
13 12 13 14 13 12 14 14 14 12 8 6 7 9 12 14 17 20 24 27 30 33 36 39 42 46 49 51 54 56 58 59 60 62 63 63 63 64 67 70 74 79 84 90
13 14 14 12 11 12 14 14 12 9 8 9 10 12 14 17 20 23 27 29 31 35 38 40 43 45 49 53 54 56 57 57 58 59 60 62 64 66 71 75 80 86 91 95
12 11 10 11 13 12 12 11 9 8 8 10 12 14 17 20 23 25 28 31 34 38 41 43 46 52 56 57 55 55 55 57 58 58 58 60 64 69 74 80 86 92 96 99
11 11 11 12 12 13 12 9 8 8 10 13 16 18 20 23 24 26 30 33 37 42 44 45 50 55 57 57 55 55 56 56 56 58 60 66 72 78 83 89 94 101 100 101
14 14 13 13 12 10 8 8 10 12 14 16 19 21 23 24 26 32 34 38 42 44 45 48 52 57 57 56 53 53 54 55 58 62 70 75 79 88 93 98 102 102 103 106
15 14 14 12 12 11 10 12 14 16 18 21 23 25 25 30 33 36 40 41 44 48 51 55 57 60 61 59 56 57 59 62 66 71 77 81 88 96 99 106 104 106 108 109
14 14 14 13 13 13 15 18 19 20 23 25 28 30 29 34 38 41 44 46 51 56 58 60 62 64 64 66 63 63 66 69 73 79 83 89 97 102 109 110 110 111 111 114
15 16 17 17 16 17 20 24 23 24 27 29 31 34 34 40 43 46 50 52 57 60 63 66 67 68 68 71 70 70 71 76 80 85 91 97 104 109 115 114 115 114 114 115
19 19 19 20 21 20 25 29 27 29 31 33 35 37 40 44 48 53 55 60 63 66 69 71 73 72 74 78 79 76 78 82 87 91 97 103 108 116 117 117 112 115 114 113
22 21 22 24 24 24 32 34 33 32 35 37 38 41 45 49 54 58 61 64 67 70 74 76 75 75 79 82 83 81 83 88 92 98 104 110 116 118 117 114 114 115 111 108
25 25 25 27 30 30 36 39 39 38 40 40 42 46 50 55 59 63 65 68 72 76 78 79 79 81 84 86 87 85 88 93 98 105 111 116 120 118 116 114 114 113 108 106
28 28 30 33 33 34 39 43 43 44 42 45 47 51 55 59 64 67 69 73 77 79 81 83 85 87 89 90 89 90 93 98 104 111 117 120 120 115 115 114 113 112 109 106
29 30 34 36 36 38 43 45 47 48 47 50 52 56 59 63 68 71 74 78 80 83 85 89 88 91 92 92 91 93 98 105 110 117 121 121 117 115 113 114 115 112 108 104
34 34 38 39 41 39 44 46 48 50 53 54 56 60 65 69 72 75 79 82 85 88 90 91 93 94 96 93 94 98 105 111 117 122 124 121 117 116 117 117 114 109 107 101
39 40 42 45 46 46 45 49 53 54 55 56 60 65 70 73 77 80 83 86 89 93 93 93 96 97 96 95 98 105 111 117 123 125 121 117 117 118 121 118 111 107 103 96
42 45 46 46 48 49 50 53 55 58 60 63 69 71 74 78 81 85 87 91 94 95 95 97 99 100 98 100 106 111 117 123 126 120 118 118 119 122 120 112 109 105 98 91
47 47 45 46 49 49 53 56 60 64 67 70 72 75 80 83 85 89 93 97 96 95 97 100 102 101 102 107 113 118 123 128 122 119 120 119 122 122 114 111 107 100 92 86
49 48 46 49 54 58 62 65 68 71 72 74 78 82 84 88 92 94 96 96 96 99 102 104 102 104 108 114 119 124 127 124 120 120 121 122 122 115 112 108 102 94 87 81
Wind_Direction
194 195 203 209 206 195 199 211 226 237 236 237 245 242 247 252 253 257 262 265 270 271 287 286 284 279 282 287 287 286 286 302 268 256 266 271 271 267 263 268 271 281 284 285
195 202 209 213 215 214 221 231 238 249 240 241 247 248 254 258 263 269 271 271 269 278 284 278 276 278 282 285 286 287 290 280 273 262 272 279 286 281 273 278 277 282 286 290
212 216 222 223 226 227 233 243 246 247 252 252 254 256 253 255 262 268 274 276 279 279 277 279 281 284 288 291 291 290 289 287 283 285 288 290 290 288 286 285 287 288 289 290
212 215 218 221 221 227 230 236 240 247 250 250 251 251 254 262 269 271 270 272 272 273 279 286 290 290 290 290 292 293 293 291 289 287 288 289 289 288 288 288 289 290 290 290
213 215 217 220 221 228 236 240 239 238 242 249 254 260 263 270 273 274 276 280 286 289 289 288 288 291 293 293 294 295 294 292 290 290 291 291 291 291 291 291 291 290 290 292
204 207 210 215 219 222 223 229 237 241 245 250 257 263 271 272 274 279 284 286 289 291 293 294 295 295 296 297 296 296 295 295 295 295 295 294 294 294 295 294 292 292 293 294
192 197 203 210 215 218 221 226 231 234 244 253 257 267 273 279 286 288 288 289 292 295 296 299 301 299 298 297 297 297 296 296 296 296 295 296 297 296 296 298 298 298 298 299
201 204 209 216 224 230 239 249 256 260 261 256 255 269 285 286 285 287 293 297 301 303 302 299 299 300 302 302 300 299 298 298 298 299 299 299 299 300 301 303 303 303 303 303
212 215 219 223 227 239 245 237 231 218 198 223 254 265 273 283 293 300 303 303 302 300 301 306 309 309 308 306 304 301 300 299 300 300 301 303 305 306 306 305 305 305 304 305
214 220 223 226 224 215 200 192 181 187 210 236 255 277 293 299 301 302 303 303 303 309 312 311 311 314 314 312 307 304 302 301 301 302 303 305 306 307 307 307 307 307 308 308
217 220 214 193 178 180 186 193 201 223 250 268 283 291 296 300 301 302 307 311 313 316 316 317 317 316 316 311 308 306 304 302 303 303 304 307 307 309 309 310 311 310 310 312
202 190 183 182 186 192 200 212 235 257 273 280 288 297 299 299 305 312 316 314 317 316 315 313 313 316 316 312 309 307 304 302 304 305 307 310 312 315 314 313 312 315 315 313
198 199 199 198 204 212 222 243 261 270 277 282 289 291 295 298 304 312 313 315 318 319 315 315 319 322 320 317 312 306 305 306 308 309 313 315 315 316 316 317 318 318 317 315
212 213 214 217 219 230 247 262 270 278 283 286 290 286 295 300 306 307 313 317 323 323 320 318 318 321 324 321 317 313 311 311 311 313 315 315 317 318 319 321 321 320 318 317
217 219 222 224 237 251 261 268 275 282 282 286 291 287 298 298 305 309 312 315 318 319 320 321 321 320 321 321 315 311 312 312 313 315 316 317 320 320 321 323 322 321 319 319
220 223 227 237 249 261 269 271 277 279 284 287 288 290 295 301 303 308 309 315 316 318 319 320 319 320 319 319 315 312 312 314 315 317 318 320 320 321 323 322 322 320 320 319
228 231 240 248 255 263 269 273 279 281 285 285 285 288 295 297 301 305 311 315 316 318 318 316 317 318 318 319 317 314 314 316 318 318 319 320 320 323 322 322 321 321 320 319
236 238 245 256 261 266 269 276 278 281 283 283 282 290 295 296 298 304 311 311 314 315 316 316 315 315 316 316 317 314 315 317 318 319 320 321 323 322 322 321 321 321 321 321
238 241 249 257 262 265 272 275 280 284 284 281 287 290 293 295 298 302 306 310 312 314 314 314 314 315 314 316 317 317 318 318 320 320 321 322 323 321 321 321 321 322 323 324
245 248 254 260 264 268 273 277 280 284 283 287 289 292 294 296 298 302 306 310 311 312 311 312 313 314 315 317 318 318 319 319 319 320 322 322 322 321 321 322 323 324 325 325
253 258 261 264 267 269 271 275 283 284 285 285 289 294 295 295 297 301 305 308 309 309 310 311 312 313 315 316 317 317 318 318 320 322 322 322 321 321 322 323 325 325 324 325
259 260 264 266 269 272 275 278 282 283 284 285 289 291 292 295 300 304 306 307 307 308 310 310 310 312 315 315 316 317 319 320 321 321 321 320 321 323 323 324 324 324 324 325
264 266 268 272 275 275 276 277 279 285 288 286 287 292 294 298 301 302 304 305 307 308 309 308 309 312 313 314 316 317 319 320 321 320 319 320 322 323 324 323 323 324 325 324
266 267 272 275 278 279 281 282 286 288 287 288 291 294 298 299 300 302 303 305 305 306 307 307 310 312 313 314 315 317 319 320 319 319 320 321 322 323 322 322 323 323 323 323
268 271 276 280 282 286 289 289 286 287 290 292 295 296 297 299 301 302 303 304 305 305 306 309 311 312 313 314 316 317 318 318 318 320 320 321 321 321 321 322 322 322 323 322
270 273 276 279 283 285 285 288 290 290 292 294 295 297 299 300 301 302 302 303 304 306 309 311 312 312 313 314 315 316 316 318 318 320 320 320 320 319 320 320 321 322 322 321